RH
87 81 76 88 96 96 96 91 97 81 83 64 47 64 57 56 59 69 77 68 72 78 80 86 88 86 89 94 93 92 91 92 94 96 96 94 91 94 91 88 90 96 99 100
97 75 76 77 79 81 86 81 77 58 56 54 54 53 60 65 72 82 79 78 77 77 82 88 92 90 84 86 93 93 92 94 98 89 88 90 86 86 85 89 85 88 92 95
94 73 73 85 78 65 60 56 56 63 56 75 58 60 76 76 81 87 75 81 85 86 83 90 88 85 89 85 91 94 94 97 93 94 95 93 93 94 93 97 98 98 97 92
97 79 98 58 52 49 60 54 61 84 84 70 70 77 86 82 92 92 83 86 83 86 82 80 81 75 93 92 94 92 98 94 94 98 98 96 95 98 99 99 99 99 98 98
97 93 64 46 88 90 91 84 73 88 75 72 76 89 77 70 81 77 94 86 81 81 79 72 84 78 97 94 93 96 97 95 98 98 98 95 96 96 98 99 99 99 98 98
92 96 94 67 88 82 82 84 70 88 81 88 92 99 68 66 80 84 82 80 81 69 67 70 80 79 89 95 95 98 100 100 99 99 98 98 98 98 96 99 99 98 99 99
99 98 79 72 85 85 90 74 82 85 84 93 97 89 77 84 78 78 85 89 75 60 64 68 70 75 83 89 96 96 94 100 100 99 99 98 98 98 97 98 99 99 99 99
95 100 93 78 90 86 72 69 67 75 77 86 86 88 83 85 98 95 95 80 62 63 65 66 66 72 82 91 89 89 91 95 100 100 99 98 99 98 95 95 99 99 99 99
82 80 55 76 74 69 71 79 76 83 83 94 96 96 96 99 88 73 63 63 58 63 66 64 64 70 81 82 82 89 90 90 94 100 99 98 99 99 98 97 98 99 98 99
70 57 64 64 61 67 70 79 77 87 92 96 100 99 95 76 74 72 67 68 67 64 68 69 66 69 74 76 78 87 93 90 92 97 100 99 98 99 99 99 100 99 99 99
85 71 67 63 68 69 87 92 86 92 90 97 97 84 84 84 76 75 71 68 66 70 68 68 65 66 72 77 83 92 91 88 95 92 96 98 98 98 99 99 99 99 99 99
84 63 76 61 62 89 93 89 78 87 93 92 84 87 83 78 78 83 72 64 62 66 71 69 63 66 69 77 86 94 93 88 87 93 94 97 98 98 99 99 99 100 99 98
72 63 71 68 73 87 88 89 86 82 80 75 76 80 84 90 86 79 61 61 63 70 75 75 75 68 70 77 89 92 94 94 93 97 97 97 98 99 99 99 100 100 100 100
70 76 74 84 87 87 91 81 72 71 70 73 80 85 88 90 83 78 77 72 65 75 81 84 80 76 80 87 92 93 91 92 95 96 94 98 98 98 99 99 99 99 100 99
67 70 65 78 89 90 71 74 77 77 70 86 88 87 90 90 90 87 79 75 76 88 85 82 92 86 83 90 92 96 87 91 94 96 94 97 98 99 99 98 98 98 99 99
83 88 91 94 92 80 75 76 74 76 76 88 87 87 86 87 88 87 80 76 89 91 96 97 88 88 82 88 91 92 94 92 94 95 94 95 98 99 99 98 98 98 98 98
90 94 96 96 84 77 78 72 74 77 84 90 87 85 84 85 86 85 83 81 87 94 92 93 90 88 86 90 92 91 95 85 94 91 94 90 94 98 99 99 98 98 97 98
88 90 91 86 78 76 76 77 82 84 87 84 86 90 93 93 87 88 86 77 90 95 90 91 92 90 90 90 94 87 94 93 92 96 90 92 93 97 99 99 98 97 98 98
81 81 83 86 90 90 90 92 95 97 98 98 98 96 92 91 88 87 89 86 89 98 92 93 93 92 93 91 94 92 92 96 91 90 92 93 94 98 98 99 98 98 97 98
93 91 92 98 99 99 99 99 97 96 96 98 96 97 96 92 94 96 96 96 96 96 96 93 92 94 95 94 91 95 88 92 95 93 91 92 95 98 98 98 99 98 97 97
97 94 95 96 95 93 98 97 98 96 94 97 99 98 97 97 97 97 97 97 95 93 92 91 89 96 94 92 94 94 88 88 93 96 95 95 97 97 97 99 99 98 98 98
91 93 97 95 94 93 90 94 95 98 100 99 98 98 98 96 95 96 96 90 90 95 97 87 87 96 94 98 89 95 89 84 87 94 94 95 98 98 98 98 98 98 98 98
95 84 84 95 94 84 90 92 95 97 96 98 99 98 96 91 90 92 92 67 77 84 88 88 96 99 97 95 95 96 93 88 84 89 93 95 96 98 99 98 98 98 98 98
95 87 88 86 88 87 93 94 92 94 97 97 97 97 90 94 95 78 75 80 90 96 95 93 96 99 97 94 96 97 95 96 93 92 91 93 95 98 98 99 98 98 98 98
91 90 90 90 79 85 79 78 78 87 83 80 74 71 70 78 96 87 88 84 92 93 90 93 96 98 95 95 96 97 96 97 96 94 93 93 94 95 98 99 99 98 98 98
94 97 96 89 89 92 93 88 92 84 82 88 82 85 84 84 80 84 82 88 89 88 90 90 94 92 95 95 96 96 96 96 96 93 96 90 90 92 96 99 99 99 98 98
87 89 85 87 82 81 85 84 84 85 81 88 89 86 83 86 86 88 88 90 92 92 91 92 93 94 92 94 95 94 96 96 98 94 96 93 90 90 94 98 99 99 99 98
Wind_Speed
8 8 6 8 7 7 8 7 8 11 16 19 15 4 5 7 8 9 12 15 16 18 15 15 20 18 12 9 7 2 2 3 5 4 5 7 10 9 10 11 8 7 7 8
4 8 8 7 6 12 14 14 16 13 14 2 3 4 7 11 8 12 12 16 18 17 16 17 19 17 16 9 6 1 4 5 4 9 9 8 10 9 9 8 9 9 10 11
4 4 5 6 5 5 2 4 6 10 9 4 5 6 6 12 10 10 16 17 15 15 15 14 19 16 14 10 2 4 5 5 9 7 8 9 9 9 9 7 7 8 9 11
3 4 3 2 2 2 3 8 7 7 6 6 7 7 9 9 7 8 11 15 15 14 15 15 19 16 13 4 4 5 6 7 7 8 8 9 10 9 8 8 7 8 9 11
2 3 8 2 4 3 3 6 4 5 8 7 3 7 8 6 6 9 14 11 12 12 14 13 17 15 6 5 6 6 9 9 8 7 8 8 10 10 9 8 8 7 7 10
2 1 5 3 4 3 3 5 5 5 9 4 2 3 11 6 6 12 11 10 13 15 13 14 15 13 10 6 6 6 5 5 5 5 6 7 7 8 8 7 7 6 6 7
2 4 9 3 4 2 7 9 2 3 9 4 4 7 6 10 13 8 9 11 12 11 11 12 14 14 12 13 11 6 5 5 5 5 6 5 5 6 7 8 6 5 4 5
3 1 7 6 4 6 8 5 5 5 5 5 8 11 12 12 8 8 8 11 10 9 12 12 13 13 11 11 9 7 7 7 6 6 5 5 5 5 8 7 4 4 4 4
8 7 4 6 7 7 4 7 7 4 3 4 11 16 11 5 9 6 7 8 8 8 11 12 13 14 15 15 14 12 11 11 8 6 6 5 5 5 5 5 3 3 2 2
1 3 9 8 6 5 4 6 7 5 6 7 8 8 7 6 4 5 7 7 8 9 10 10 11 12 12 13 13 13 13 13 12 9 9 6 4 4 4 3 3 2 0 1
6 9 6 9 6 7 5 5 6 5 5 5 5 6 5 5 5 6 6 7 7 8 8 9 10 12 11 11 13 12 11 11 10 9 9 9 6 4 4 4 3 2 1 1
8 8 6 5 4 4 4 4 6 6 7 7 7 6 3 4 4 4 6 7 9 9 8 8 9 11 10 11 11 11 11 9 10 9 9 8 7 4 6 7 7 6 5 3
6 5 6 7 7 6 4 3 5 6 6 4 4 1 3 3 4 5 7 8 9 9 9 9 8 11 11 11 11 10 10 10 8 9 9 9 7 5 3 1 5 6 7 8
7 1 6 4 6 5 5 4 5 4 5 3 2 0 2 3 4 5 5 5 8 8 8 7 9 9 11 11 11 10 10 11 8 8 9 9 7 5 3 3 2 1 5 6
9 9 9 5 3 3 2 1 5 6 4 4 3 2 2 4 5 6 5 5 6 6 7 8 8 10 11 11 11 11 10 8 9 7 8 9 6 4 2 3 3 2 3 3
4 4 4 2 3 4 4 6 6 6 5 5 5 4 4 4 5 5 5 5 5 7 6 5 8 9 12 11 12 10 9 13 10 8 7 8 6 4 2 3 4 4 4 4
3 3 3 3 5 7 8 7 7 7 5 5 5 4 5 5 5 5 5 5 4 4 4 5 6 7 9 9 11 9 9 11 11 8 7 8 6 5 4 3 4 5 5 5
5 4 7 7 6 6 7 7 6 5 4 4 4 4 4 5 6 6 6 4 4 5 5 6 6 6 6 9 8 10 9 8 8 8 9 8 7 5 4 4 5 5 4 5
4 5 6 6 6 6 6 5 3 4 4 5 5 6 6 6 5 6 7 6 4 3 5 6 7 7 6 10 8 8 9 9 9 9 8 9 7 5 4 5 4 5 6 6
4 6 7 7 6 5 6 3 5 5 6 6 6 5 7 8 4 6 4 6 1 2 5 5 7 6 6 8 11 7 10 10 9 9 9 9 8 6 5 5 5 6 6 7
4 4 5 6 5 4 2 3 4 5 6 3 4 6 5 5 4 2 2 3 4 5 6 7 6 5 5 8 7 7 10 11 10 8 9 9 9 7 6 4 3 5 6 6
3 4 4 5 5 5 6 5 4 3 4 4 2 2 2 5 6 5 4 6 5 7 4 6 6 6 6 8 6 6 8 10 10 8 9 10 9 7 5 4 4 5 5 6
5 6 6 5 5 7 6 4 5 4 5 0 3 4 4 3 2 4 5 5 5 6 6 6 7 8 8 5 5 5 8 9 10 10 9 9 10 9 6 5 5 5 6 6
5 7 6 6 6 6 6 7 7 5 4 3 2 1 3 4 3 4 4 7 8 7 6 7 7 8 7 5 5 5 6 6 7 7 10 11 9 9 8 5 5 5 6 7
4 3 3 4 5 3 5 5 4 3 4 6 7 7 7 4 3 7 6 8 9 8 8 8 9 8 5 5 5 5 6 6 7 7 8 9 9 9 9 7 5 5 6 7
4 3 3 5 5 4 4 5 4 5 5 6 6 6 7 7 7 7 8 9 9 10 8 7 6 6 5 6 6 6 6 7 7 7 8 8 9 9 10 8 6 5 6 6
4 5 4 4 4 4 4 5 5 6 7 7 9 8 8 9 9 9 10 9 8 8 8 7 7 7 7 6 7 7 6 6 6 7 6 6 7 9 9 10 6 5 5 6
Wind_Direction
264 279 263 244 227 218 225 231 244 286 274 281 291 310 293 293 300 321 327 329 334 330 326 323 336 321 301 290 284 254 48 15 338 346 353 341 333 327 323 320 309 295 265 251
264 248 247 262 237 234 232 247 257 273 287 318 312 329 325 319 329 327 317 325 324 322 327 330 319 313 303 285 257 99 33 21 354 3 347 334 329 327 319 314 307 296 289 274
271 29 314 286 246 235 260 276 273 276 288 344 309 321 311 306 315 311 321 317 324 319 324 319 317 312 312 296 145 58 43 18 2 350 336 339 331 328 324 310 303 298 285 278
312 347 276 199 29 288 289 279 307 318 299 294 287 289 283 280 275 288 320 315 322 319 319 328 319 327 332 359 55 45 43 15 360 347 341 341 334 327 325 321 312 306 294 282
237 250 312 147 10 58 40 298 246 229 267 258 327 309 286 256 252 335 319 312 317 315 311 329 327 334 331 23 33 37 21 3 354 346 332 332 337 336 325 319 317 312 310 300
132 165 267 203 190 184 185 283 242 204 270 243 42 347 292 274 308 314 307 325 320 314 331 338 340 346 9 14 30 33 3 341 335 320 314 329 327 327 324 311 308 311 323 316
164 223 283 227 171 148 77 246 273 221 251 209 202 223 278 312 311 317 332 320 320 336 339 344 343 345 12 13 14 348 330 315 315 307 307 307 319 319 318 318 314 320 337 342
136 97 282 158 109 142 224 282 268 272 263 258 265 282 291 311 302 308 321 327 332 344 343 346 352 357 1 17 356 328 322 308 298 304 312 312 306 313 317 317 319 333 351 354
180 216 213 196 204 243 241 248 267 259 280 288 307 294 301 284 289 311 345 342 348 357 336 348 358 2 2 356 351 348 338 323 313 304 297 284 283 290 300 304 310 323 3 12
35 246 245 250 264 250 274 241 256 220 275 307 300 310 307 300 346 349 343 354 349 347 345 350 360 359 359 348 343 338 336 333 328 311 303 289 265 256 272 280 284 296 345 60
259 278 271 257 227 238 258 293 285 225 274 291 294 292 304 316 337 336 323 339 350 345 336 345 354 354 352 345 339 334 334 333 325 324 313 298 272 247 247 257 237 245 230 176
226 221 187 244 242 220 243 281 319 268 269 251 251 282 311 325 337 321 326 344 339 332 334 341 354 354 349 343 343 336 330 329 324 315 312 304 289 269 243 257 244 240 216 173
237 219 211 254 245 217 219 244 258 251 229 244 269 305 344 305 306 318 336 337 336 332 327 336 349 354 347 343 339 334 322 317 315 315 316 311 295 260 239 282 262 238 197 176
243 258 285 222 245 210 213 241 275 262 241 217 171 290 302 297 308 319 318 314 324 327 335 353 347 348 343 335 329 327 323 318 310 312 315 313 304 269 208 189 182 147 188 165
258 212 236 243 217 246 189 265 273 270 268 194 201 240 314 307 303 299 303 319 330 324 345 354 340 338 338 333 328 321 330 324 320 310 312 313 305 277 212 176 161 142 121 140
249 194 188 223 280 240 245 265 257 259 252 223 225 245 260 272 287 291 299 314 349 332 340 337 340 332 336 330 327 327 325 324 319 314 319 322 318 282 232 187 169 166 169 160
122 46 6 312 255 249 246 238 233 246 244 222 244 253 254 261 273 285 295 306 327 308 325 316 320 322 329 324 328 326 319 332 316 316 314 321 316 293 260 201 185 183 184 173
135 208 225 237 255 266 273 256 253 232 228 238 235 243 259 268 268 280 277 304 336 318 308 299 294 303 310 312 315 328 316 321 324 316 319 317 311 302 275 221 191 182 176 176
309 306 323 324 319 305 307 317 325 342 331 298 260 247 245 250 254 273 275 290 272 295 287 301 306 313 309 319 320 328 321 315 328 326 319 311 308 284 276 268 200 184 175 176
350 17 356 337 336 337 324 349 1 325 299 288 277 263 258 255 247 264 270 255 209 264 286 311 323 318 319 323 333 321 331 321 321 324 322 318 304 295 266 254 212 190 182 183
338 327 310 319 317 326 305 284 283 282 289 272 264 278 285 318 322 286 15 352 357 345 332 322 323 316 331 331 320 329 330 328 322 323 323 320 310 289 269 222 205 194 190 186
291 308 311 308 307 307 308 302 304 301 315 318 357 11 27 51 27 8 356 324 330 329 320 313 310 322 318 320 319 326 327 327 324 317 325 322 317 297 252 223 208 199 191 188
0 339 336 322 308 297 298 316 322 290 300 152 71 37 41 12 3 335 319 305 299 298 306 297 299 308 315 308 308 305 313 315 323 320 314 320 315 310 279 237 217 201 190 185
348 347 359 355 345 353 358 11 351 26 36 59 109 134 338 310 288 259 278 295 286 284 282 279 285 294 308 296 292 285 294 301 308 306 309 310 316 315 303 260 228 208 199 189
338 339 338 339 339 325 324 335 328 350 343 340 339 332 319 307 256 292 287 288 280 277 284 281 282 288 289 285 286 279 282 288 290 299 302 308 309 318 310 288 235 214 202 193
339 331 311 315 321 349 11 12 6 1 341 318 308 304 298 295 294 289 290 283 282 286 285 284 277 277 271 274 272 275 278 283 287 292 291 315 317 313 311 301 268 222 207 195
7 12 358 3 16 14 11 354 333 316 313 303 292 294 292 293 290 284 282 282 277 275 276 272 267 268 270 268 272 273 273 275 267 283 285 292 298 299 305 304 287 247 212 197